Date String (YYYY-MM-DD hh:mm:ss) UTC,Instrument flags,absolute air pressure of the measurement (hPa),sample flow rate (lpm),inlet stack bypass flow (lpm),air temperature of the measurement (°C),ambient temperature measured by the external sensor (°C),aerosol sample conditioner tube jacket temperature (°C),OPC LED temperature (°C),internal box temperature (°C),relative humidity of the measurement (%),span deviation,mass concentration of particles derived from Lorenz-Mie calculation of OPC scattering (μg/m³),mass concentration of particles derived from Lorenz-Mie calculation of OPC scattering (μg/m³),mass concentration of particles derived from Lorenz-Mie calculation of OPC scattering (μg/m³)
DateTimeUTC,F1_M11,P_M11,Q1_M11,Q2_M11,T1_M11,T2_M11,T3_M11,T4_M11,T5_M11,U1_M11,ZSPAN_M11,X0_M11,X2_M11,X1_M11
2023-06-25 01:00:00,SystemResetWarning,0830.5,4.98,000.00,029.6,026.5,000.0,037.9,031.2,14.6,0004.8,0010.69,0005.65,0005.00
2023-06-25 01:01:00,SystemResetWarning,0830.5,5.01,000.00,029.5,024.5,000.0,037.8,031.0,13.7,0004.6,0010.54,0005.66,0005.01
2023-06-25 01:02:00,SystemResetWarning,0830.4,5.02,000.00,029.4,024.5,000.0,037.7,031.0,13.8,0004.8,0010.34,0005.63,0005.02
2023-06-25 01:03:00,SystemResetWarning,0830.5,5.00,000.00,029.3,024.9,000.0,037.7,030.7,13.7,0005.0,0010.34,0005.66,0005.04
2023-06-25 01:04:00,SystemResetWarning,0830.7,5.00,000.00,029.3,025.4,000.0,037.8,030.6,12.8,0005.1,0011.44,0005.69,0005.04
2023-06-25 01:05:00,SystemResetWarning,0831.0,5.00,000.00,029.3,025.9,000.0,037.7,030.7,12.6,0005.0,0012.28,0005.75,0005.04
2023-06-25 01:06:00,SystemResetWarning,0830.6,5.00,000.00,029.3,026.4,000.0,037.7,030.8,12.2,0004.9,0012.36,0005.77,0005.04
2023-06-25 01:07:00,SystemResetWarning,0830.5,5.00,000.00,029.3,026.8,000.0,037.8,030.9,12.5,0004.8,0012.37,0005.83,0005.06
2023-06-25 01:08:00,SystemResetWarning,0830.5,4.99,000.00,029.3,027.2,000.0,037.8,031.0,12.9,0004.8,0012.36,0005.86,0005.07
2023-06-25 01:09:00,SystemResetWarning,0830.4,5.00,000.00,029.4,027.5,000.0,037.8,031.0,13.5,0004.7,0012.06,0005.86,0005.09
2023-06-25 01:10:00,SystemResetWarning,0830.5,5.00,000.00,029.4,027.8,000.0,037.8,031.2,14.0,0004.5,0011.86,0005.88,0005.12
2023-06-25 01:11:00,SystemResetWarning,0830.5,5.00,000.00,029.5,028.0,000.0,037.8,031.2,13.8,0004.3,0011.64,0005.96,0005.18
2023-06-25 01:12:00,SystemResetWarning,0830.6,4.98,000.00,029.5,027.1,000.0,037.8,031.3,14.0,0004.4,0012.55,0006.01,0005.21
2023-06-25 01:13:00,SystemResetWarning,0830.5,5.01,000.00,029.5,025.4,000.0,037.8,031.2,13.0,0004.1,0012.64,0006.03,0005.24
2023-06-25 01:14:00,SystemResetWarning,0830.4,5.02,000.00,029.5,025.5,000.0,037.8,031.1,12.9,0003.7,0012.94,0006.06,0005.25
2023-06-25 01:15:00,SystemResetWarning,0830.5,4.99,000.00,029.4,025.8,000.0,037.8,030.9,13.6,0003.4,0012.22,0006.07,0005.26
2023-06-25 01:16:00,SystemResetWarning,0830.6,5.00,000.00,029.4,026.2,000.0,037.8,030.9,14.4,0003.3,0011.38,0006.05,0005.27
2023-06-25 01:17:00,SystemResetWarning,0830.5,5.01,000.00,029.4,026.7,000.0,037.8,030.9,14.3,0003.3,0011.88,0006.08,0005.29
2023-06-25 01:18:00,SystemResetWarning,0830.6,5.00,000.00,029.4,027.1,000.0,037.8,031.0,14.0,0003.4,0012.34,0006.06,0005.28
2023-06-25 01:19:00,SystemResetWarning,0830.6,4.99,000.00,029.4,027.4,000.0,037.8,031.1,13.3,0003.1,0012.26,0006.04,0005.26
2023-06-25 01:20:00,SystemResetWarning,0830.7,4.99,000.00,029.5,027.7,000.0,037.9,031.2,14.2,0002.9,0012.71,0006.04,0005.24
2023-06-25 01:21:00,SystemResetWarning,0830.6,5.00,000.00,029.5,027.8,000.0,037.9,031.2,14.6,0002.7,0013.46,0006.05,0005.23
2023-06-25 01:22:00,SystemResetWarning,0830.6,5.00,000.00,029.5,026.1,000.0,037.8,031.1,13.5,0002.7,0013.46,0006.01,0005.19
2023-06-25 01:23:00,SystemResetWarning,0830.6,5.01,000.00,029.5,024.3,000.0,037.8,030.9,13.8,0002.5,0012.72,0005.99,0005.16
2023-06-25 01:24:00,SystemResetWarning,0830.6,5.02,000.00,029.4,024.4,000.0,037.7,030.9,13.4,0002.0,0012.89,0006.01,0005.14
2023-06-25 01:25:00,SystemResetWarning,0830.6,5.00,000.00,029.3,024.9,000.0,037.7,030.6,14.0,0002.0,0013.23,0006.02,0005.12
2023-06-25 01:26:00,SystemResetWarning,0830.6,5.00,000.00,029.2,025.4,000.0,037.7,030.6,14.5,0001.8,0013.13,0006.04,0005.12
2023-06-25 01:27:00,SystemResetWarning,0830.5,5.00,000.00,029.2,025.9,000.0,037.7,030.7,13.1,0002.4,0013.07,0006.06,0005.14
2023-06-25 01:28:00,SystemResetWarning,0830.6,4.99,000.00,029.2,026.4,000.0,037.7,030.8,14.1,0002.2,0012.87,0006.01,0005.13
2023-06-25 01:29:00,SystemResetWarning,0830.5,4.99,000.00,029.3,026.9,000.0,037.7,030.9,15.0,0002.0,0013.26,0006.03,0005.14
2023-06-25 01:30:00,SystemResetWarning,0830.5,5.02,000.00,029.3,027.2,000.0,037.8,030.9,12.7,0002.5,0014.04,0006.01,0005.14
2023-06-25 01:31:00,SystemResetWarning,0830.5,4.99,000.00,029.3,027.5,000.0,037.8,031.0,10.5,0002.5,0013.50,0006.04,0005.15
2023-06-25 01:32:00,SystemResetWarning,0830.5,4.99,000.00,029.4,027.8,000.0,037.8,031.0,10.1,0002.7,0012.78,0006.03,0005.16
2023-06-25 01:33:00,SystemResetWarning,0830.6,5.00,000.00,029.4,028.0,000.0,037.8,031.1,10.2,0002.5,0012.69,0006.04,0005.16
2023-06-25 01:34:00,SystemResetWarning,0830.6,5.01,000.00,029.4,028.1,000.0,037.8,031.2,10.4,0002.7,0013.29,0006.04,0005.17
2023-06-25 01:35:00,SystemResetWarning,0830.6,4.99,000.00,029.5,026.9,000.0,037.8,031.2,10.5,0003.2,0014.22,0006.04,0005.20
2023-06-25 01:36:00,SystemResetWarning,0830.6,5.01,000.00,029.5,025.3,000.0,037.8,031.2,10.1,0003.3,0013.98,0006.07,0005.25
2023-06-25 01:37:00,SystemResetWarning,0830.6,5.02,000.00,029.4,025.4,000.0,037.7,031.1,10.3,0003.5,0014.39,0006.07,0005.28
2023-06-25 01:38:00,SystemResetWarning,0830.6,4.98,000.00,029.4,025.7,000.0,037.8,030.8,10.1,0003.7,0014.47,0006.12,0005.33
2023-06-25 01:39:00,SystemResetWarning,0830.5,4.99,000.00,029.3,026.2,000.0,037.8,030.8,10.6,0004.0,0014.79,0006.19,0005.40
2023-06-25 01:40:00,SystemResetWarning,0830.5,5.01,000.00,029.3,026.6,000.0,037.8,030.8,10.5,0004.2,0013.97,0006.20,0005.45
2023-06-25 01:41:00,SystemResetWarning,0830.6,5.01,000.00,029.4,027.0,000.0,037.8,030.9,10.0,0004.1,0013.18,0006.27,0005.51
2023-06-25 01:42:00,SystemResetWarning,0830.7,4.99,000.00,029.4,027.3,000.0,037.8,031.0,10.1,0004.2,0013.29,0006.35,0005.58
2023-06-25 01:43:00,SystemResetWarning,0830.5,5.00,000.00,029.4,027.6,000.0,037.9,031.0,9.4,0004.3,0014.09,0006.43,0005.64
2023-06-25 01:44:00,SystemResetWarning,0830.5,5.00,000.00,029.5,027.8,000.0,037.9,031.1,8.9,0004.9,0014.46,0006.52,0005.71
2023-06-25 01:45:00,SystemResetWarning,0830.5,5.01,000.00,029.5,028.0,000.0,037.9,031.2,9.2,0004.9,0013.96,0006.56,0005.79
2023-06-25 01:46:00,SystemResetWarning,0830.6,4.99,000.00,029.5,027.4,000.0,037.9,031.2,9.1,0004.8,0012.91,0006.59,0005.83
2023-06-25 01:47:00,SystemResetWarning,0830.6,5.00,000.00,029.5,025.4,000.0,037.8,031.2,9.9,0005.2,0012.80,0006.58,0005.86
2023-06-25 01:48:00,SystemResetWarning,0830.6,5.01,000.00,029.5,025.4,000.0,037.8,031.1,9.6,0005.6,0012.36,0006.61,0005.90
2023-06-25 01:49:00,SystemResetWarning,0830.7,5.01,000.00,029.5,025.7,000.0,037.8,030.9,9.4,0005.4,0013.00,0006.62,0005.91
2023-06-25 01:50:00,SystemResetWarning,0830.8,4.99,000.00,029.4,026.1,000.0,037.8,030.8,9.5,0005.1,0013.21,0006.61,0005.91
2023-06-25 01:51:00,SystemResetWarning,0830.9,5.00,000.00,029.4,026.5,000.0,037.9,030.9,9.4,0004.9,0013.06,0006.64,0005.94
2023-06-25 01:52:00,SystemResetWarning,0830.9,5.00,000.00,029.4,026.9,000.0,037.9,031.0,9.8,0005.0,0013.12,0006.67,0005.96
2023-06-25 01:53:00,SystemResetWarning,0830.9,4.99,000.00,029.5,027.3,000.0,037.9,031.0,9.5,0004.9,0013.15,0006.65,0005.95
2023-06-25 01:54:00,SystemResetWarning,0831.0,4.99,000.00,029.5,027.6,000.0,037.9,031.1,9.5,0004.8,0012.54,0006.59,0005.93
2023-06-25 01:55:00,SystemResetWarning,0831.0,5.01,000.00,029.5,027.8,000.0,037.9,031.1,9.3,0004.7,0012.37,0006.57,0005.92
2023-06-25 01:56:00,SystemResetWarning,0831.1,5.00,000.00,029.6,027.4,000.0,037.9,031.2,9.5,0004.4,0012.81,0006.58,0005.92
2023-06-25 01:57:00,SystemResetWarning,0831.1,5.00,000.00,029.6,025.5,000.0,037.9,031.2,9.8,0004.5,0013.07,0006.56,0005.90
2023-06-25 01:58:00,SystemResetWarning,0831.1,5.01,000.00,029.5,025.2,000.0,037.8,031.2,9.7,0004.1,0012.88,0006.54,0005.88
2023-06-25 01:59:00,SystemResetWarning,0831.1,5.01,000.00,029.5,025.6,000.0,037.8,030.9,10.1,0003.7,0013.86,0006.54,0005.86
